Location: Powder Track
(41.8531°N, 72.3584°W)
Time: 10:58:20
(UTC+00:00)

S-56A Canister/Altair - Visible Passes

Search period start: 03 August 2021 00:00
Search period end: 13 August 2021 00:00
Orbit: 631 x 2501 km, 38.9° (Epoch: 02 August)

Date Brightness Start Highest point End Pass type
(mag) Time Alt. Az. Time Alt. Az. Time Alt. Az.
03 Aug 10.4 00:41:04 10° W 00:55:09 49° SSW 01:06:33 10° SE visible
03 Aug 10.8 02:50:45 10° W 02:58:41 18° SW 03:04:03 13° SSW visible
04 Aug 10.8 02:16:13 10° W 02:25:49 22° SW 02:33:04 12° S visible
05 Aug 10.9 01:41:57 10° W 01:52:49 26° SW 02:02:04 10° S visible
06 Aug 10.9 01:07:53 10° W 01:19:45 30° SW 01:29:57 10° S visible
07 Aug 10.9 00:34:00 10° W 00:46:36 34° SW 00:57:40 10° SSE visible
08 Aug 11.5 02:14:14 10° WSW 02:16:44 11° WSW 02:19:11 10° SW visible
09 Aug 11.4 01:37:39 10° W 01:43:49 14° SW 01:49:37 10° SSW visible
10 Aug 11.4 01:02:39 10° W 01:10:49 17° SW 01:18:29 10° SSW visible
11 Aug 11.4 00:28:12 10° W 00:37:44 20° SW 00:46:47 10° S visible
